Satellite: NOAA-11 Catalog number: 19531 Epoch time: 11348.80569322 Element set: 0744 Inclination: 098.7454 deg RA of node: 072.7881 deg Eccentricity: 0.0011781 Arg of perigee: 036.1529 deg Mean anomaly: 324.0453 deg Mean motion: 14.14944654 rev/day Decay rate: 8.2e-07 rev/day^2 Epoch rev: 19829 Checksum: 315
Satellite: NOAA-12 Catalog number: 21263 Epoch time: 11348.95272753 Element set: 0248 Inclination: 098.7417 deg RA of node: 006.3694 deg Eccentricity: 0.0014380 Arg of perigee: 022.4389 deg Mean anomaly: 337.7417 deg Mean motion: 14.25464798 rev/day Decay rate: 1.49e-06 rev/day^2 Epoch rev: 07016 Checksum: 316
Satellite: MET-3/5 Catalog number: 21655 Epoch time: 11348.93877031 Element set: 0287 Inclination: 082.5603 deg RA of node: 283.0575 deg Eccentricity: 0.0014855 Arg of perigee: 066.0796 deg Mean anomaly: 294.1907 deg Mean motion: 13.17035731 rev/day Decay rate: 5.1e-07 rev/day^2 Epoch rev: 97751 Checksum: 319
Satellite: MET-2/21 Catalog number: 22782 Epoch time: 11349.61643298 Element set: 283 Inclination: 082.5450 deg RA of node: 178.9407 deg Eccentricity: 0.0021550 Arg of perigee: 313.1365 deg Mean anomaly: 046.7988 deg Mean motion: 13.83670889 rev/day Decay rate: 1.6e-07 rev/day^2 Epoch rev: 92364 Checksum: 328
Satellite: OKEAN-4 Catalog number: 23317 Epoch time: 11348.96622078 Element set: 0784 Inclination: 082.5407 deg RA of node: 204.2997 deg Eccentricity: 0.0019961 Arg of perigee: 242.0544 deg Mean anomaly: 117.8653 deg Mean motion: 14.83458286 rev/day Decay rate: 1.471e-05 rev/day^2 Epoch rev: 92734 Checksum: 329
Satellite: NOAA-14 Catalog number: 23455 Epoch time: 11348.92136703 Element set: 0733 Inclination: 098.8414 deg RA of node: 069.6625 deg Eccentricity: 0.0009941 Arg of perigee: 123.0888 deg Mean anomaly: 237.1240 deg Mean motion: 14.13863040 rev/day Decay rate: 1.60e-06 rev/day^2 Epoch rev: 87461 Checksum: 298
Satellite: NOAA-15 Catalog number: 25338 Epoch time: 11348.62387640 Element set: 0063 Inclination: 098.6734 deg RA of node: 332.4691 deg Eccentricity: 0.0009843 Arg of perigee: 290.8524 deg Mean anomaly: 069.1586 deg Mean motion: 14.25006025 rev/day Decay rate: 3.90e-06 rev/day^2 Epoch rev: 70642 Checksum: 309
Satellite: RESURS Catalog number: 25394 Epoch time: 11348.93844594 Element set: 0985 Inclination: 098.3068 deg RA of node: 342.0753 deg Eccentricity: 0.0002355 Arg of perigee: 063.8934 deg Mean anomaly: 296.2488 deg Mean motion: 14.24263735 rev/day Decay rate: 1.28e-06 rev/day^2 Epoch rev: 69803 Checksum: 336
Satellite: FENGYUN1 Catalog number: 25730 Epoch time: 11348.91689558 Element set: 492 Inclination: 098.8306 deg RA of node: 306.3196 deg Eccentricity: 0.0020982 Arg of perigee: 171.2379 deg Mean anomaly: 188.9153 deg Mean motion: 14.09119100 rev/day Decay rate: 8.28e-06 rev/day^2 Epoch rev: 64851 Checksum: 326
Satellite: OKEAN-0 Catalog number: 25860 Epoch time: 11349.83548393 Element set: 492 Inclination: 097.9100 deg RA of node: 311.5599 deg Eccentricity: 0.0001732 Arg of perigee: 086.6405 deg Mean anomaly: 273.4999 deg Mean motion: 14.74016228 rev/day Decay rate: 1.014e-05 rev/day^2 Epoch rev: 66741 Checksum: 315
Satellite: NOAA-16 Catalog number: 26536 Epoch time: 11348.61791251 Element set: 0545 Inclination: 099.1206 deg RA of node: 022.6515 deg Eccentricity: 0.0009750 Arg of perigee: 244.4830 deg Mean anomaly: 115.5335 deg Mean motion: 14.12683594 rev/day Decay rate: -6.8e-07 rev/day^2 Epoch rev: 57883 Checksum: 309
Satellite: NOAA-17 Catalog number: 27453 Epoch time: 11348.92742234 Element set: 0528 Inclination: 098.3583 deg RA of node: 020.1409 deg Eccentricity: 0.0011563 Arg of perigee: 345.3712 deg Mean anomaly: 014.7138 deg Mean motion: 14.24368462 rev/day Decay rate: 2.88e-06 rev/day^2 Epoch rev: 49238 Checksum: 305
Satellite: NOAA-18 Catalog number: 28654 Epoch time: 11348.78568651 Element set: 0003 Inclination: 099.0213 deg RA of node: 300.5914 deg Eccentricity: 0.0013924 Arg of perigee: 319.3304 deg Mean anomaly: 040.6821 deg Mean motion: 14.11575324 rev/day Decay rate: 5.54e-06 rev/day^2 Epoch rev: 33840 Checksum: 284
Satellite: NOAA-19 Catalog number: 33591 Epoch time: 11348.75209838 Element set: 0192 Inclination: 098.8468 deg RA of node: 286.0251 deg Eccentricity: 0.0013958 Arg of perigee: 182.6661 deg Mean anomaly: 177.4446 deg Mean motion: 14.11264295 rev/day Decay rate: 5.00e-06 rev/day^2 Epoch rev: 14685 Checksum: 332
/EX SB KEPS @ AMSAT $ORB11349.M Orbital Elements 11349.MISC
HR AMSAT ORBITAL ELEMENTS FOR MANNED AND MISCELLANEOUS SATELLITES FROM WA5QGD FORT WORTH,TX December 15, 2011 Send Subscribe/unsubscribe to KEPS at http://www.amsat.org/mailman/listinfo/keps BID: ORB11349.M TO ALL RADIO AMATEURS BT
Satellite: HUBBLE Catalog number: 20580 Epoch time: 11347.17678168 Element set: 904 Inclination: 028.4717 deg RA of node: 286.8741 deg Eccentricity: 0.0003564 Arg of perigee: 222.7757 deg Mean anomaly: 137.2358 deg Mean motion: 15.01987885 rev/day Decay rate: 3.263e-05 rev/day^2 Epoch rev: 98658 Checksum: 342
Satellite: ISS Catalog number: 25544 Epoch time: 11349.94557278 Element set: 631 Inclination: 051.6451 deg RA of node: 326.3978 deg Eccentricity: 0.0024914 Arg of perigee: 168.6872 deg Mean anomaly: 288.3921 deg Mean motion: 15.58214982 rev/day Decay rate: 1.6796e-04 rev/day^2 Epoch rev: 74928 Checksum: 357
Satellite: CO-58 Catalog number: 28895 Epoch time: 11348.62751943 Element set: 0049 Inclination: 097.9397 deg RA of node: 217.7814 deg Eccentricity: 0.0018010 Arg of perigee: 018.2147 deg Mean anomaly: 341.9677 deg Mean motion: 14.60390463 rev/day Decay rate: 1.378e-05 rev/day^2 Epoch rev: 32657 Checksum: 343
Satellite: FALCON Catalog number: 30776 Epoch time: 11348.93417935 Element set: 0249 Inclination: 035.4349 deg RA of node: 327.1362 deg Eccentricity: 0.0002637 Arg of perigee: 234.8572 deg Mean anomaly: 125.1896 deg Mean motion: 15.06141359 rev/day Decay rate: 7.431e-05 rev/day^2 Epoch rev: 26229 Checksum: 308
Satellite: MAST Catalog number: 31126 Epoch time: 11349.52723426 Element set: 333 Inclination: 097.8826 deg RA of node: 006.3890 deg Eccentricity: 0.0093820 Arg of perigee: 326.8290 deg Mean anomaly: 032.7044 deg Mean motion: 14.53964270 rev/day Decay rate: 9.59e-06 rev/day^2 Epoch rev: 24743 Checksum: 302
Satellite: CAPE1 Catalog number: 31130 Epoch time: 11348.92210731 Element set: 0345 Inclination: 097.8872 deg RA of node: 002.3470 deg Eccentricity: 0.0101735 Arg of perigee: 340.4936 deg Mean anomaly: 019.2396 deg Mean motion: 14.52675222 rev/day Decay rate: 1.557e-05 rev/day^2 Epoch rev: 24687 Checksum: 285
Satellite: COMPASS Catalog number: 32787 Epoch time: 11348.66732285 Element set: 0172 Inclination: 097.8279 deg RA of node: 048.9657 deg Eccentricity: 0.0014582 Arg of perigee: 310.4610 deg Mean anomaly: 049.5329 deg Mean motion: 14.83249611 rev/day Decay rate: 3.730e-05 rev/day^2 Epoch rev: 19630 Checksum: 320
Satellite: AAUSAT2 Catalog number: 32788 Epoch time: 11348.87558604 Element set: 0163 Inclination: 097.8285 deg RA of node: 049.4591 deg Eccentricity: 0.0014308 Arg of perigee: 311.8685 deg Mean anomaly: 048.1254 deg Mean motion: 14.83507509 rev/day Decay rate: 4.213e-05 rev/day^2 Epoch rev: 19635 Checksum: 327
Satellite: DO-64 Catalog number: 32789 Epoch time: 11348.87507315 Element set: 0177 Inclination: 097.8365 deg RA of node: 050.8645 deg Eccentricity: 0.0014474 Arg of perigee: 307.0149 deg Mean anomaly: 052.9704 deg Mean motion: 14.84487902 rev/day Decay rate: 6.406e-05 rev/day^2 Epoch rev: 19637 Checksum: 342
Satellite: CO-66 Catalog number: 32791 Epoch time: 11349.46949033 Element set: 165 Inclination: 097.8283 deg RA of node: 049.6198 deg Eccentricity: 0.0015047 Arg of perigee: 307.9596 deg Mean anomaly: 052.0261 deg Mean motion: 14.82803452 rev/day Decay rate: 2.894e-05 rev/day^2 Epoch rev: 19636 Checksum: 342
Satellite: RS-30 Catalog number: 32953 Epoch time: 11349.56913268 Element set: 345 Inclination: 082.5034 deg RA of node: 049.9478 deg Eccentricity: 0.0018489 Arg of perigee: 355.0020 deg Mean anomaly: 005.0877 deg Mean motion: 12.43018344 rev/day Decay rate: 1.0e-07 rev/day^2 Epoch rev: 16162 Checksum: 288
Satellite: TACSAT-3 Catalog number: 35001 Epoch time: 11349.82348293 Element set: 797 Inclination: 040.4513 deg RA of node: 141.8005 deg Eccentricity: 0.0005287 Arg of perigee: 105.8579 deg Mean anomaly: 254.2827 deg Mean motion: 15.64018873 rev/day Decay rate: 7.4321e-04 rev/day^2 Epoch rev: 14534 Checksum: 300
Satellite: PHARMSAT Catalog number: 35002 Epoch time: 11349.83812261 Element set: 736 Inclination: 040.4712 deg RA of node: 142.2485 deg Eccentricity: 0.0010870 Arg of perigee: 141.7757 deg Mean anomaly: 218.3837 deg Mean motion: 15.59606034 rev/day Decay rate: 5.0830e-04 rev/day^2 Epoch rev: 14534 Checksum: 278
Satellite: HAWKSAT1 Catalog number: 35003 Epoch time: 11276.79285837 Element set: 811 Inclination: 040.4398 deg RA of node: 174.3672 deg Eccentricity: 0.0011414 Arg of perigee: 274.3918 deg Mean anomaly: 085.3844 deg Mean motion: 16.13812532 rev/day Decay rate: 2.274821e-02 rev/day^2 Epoch rev: 13457 Checksum: 306
Satellite: CP6 Catalog number: 35004 Epoch time: 11247.64656856 Element set: 784 Inclination: 040.4403 deg RA of node: 342.9642 deg Eccentricity: 0.0002956 Arg of perigee: 038.0069 deg Mean anomaly: 322.2231 deg Mean motion: 16.41039951 rev/day Decay rate: 1.6152067e-01 rev/day^2 Epoch rev: 13013 Checksum: 285
Satellite: METEOR-M Catalog number: 35865 Epoch time: 11349.70867547 Element set: 982 Inclination: 098.6827 deg RA of node: 042.2529 deg Eccentricity: 0.0001771 Arg of perigee: 217.3214 deg Mean anomaly: 142.7841 deg Mean motion: 14.21851207 rev/day Decay rate: 3.1e-07 rev/day^2 Epoch rev: 11638 Checksum: 300
